Location: Bonac
(42.8765°N, 0.9753°E)
Time: 14:28:59
(UTC+00:00)

Cosmos 2218 Rocket - Pass Details

Date: 12 January 2026
Orbit: 955 x 1005 km, 82.9° (Epoch: 17 February)

Event Time Altitude Azimuth Distance (km) Brightness Sun altitude
Rises 17:44:43 0° 355° (N) 3,742 6.9 -11.0°
Reaches altitude 10° 17:47:19 10° 359° (N) 2,789 6.2 -11.5°
Maximum altitude 17:53:39 61° 79° (E) 1,135 4.1 -12.6°
Drops below altitude 10° 17:59:56 10° 159° (SSE) 2,763 6.3 -13.7°
Sets 18:02:29 0° 163° (SSE) 3,703 7.0 -14.1°
